[[{"header":{"parameterUnit":"m.s-1","parameterCategory":1,"la1":30.2991,"la2":30.254,"lo1":-89.0895,"lo2":-89.0444,"dy":0.0017,"dx":0.0017,"nx":28,"ny":28,"refTime":"2025-04-30T21:00:00:Z","depth":0,"parameterNumber":2,"parameterNumberName":"U-component_of_WINDS"},"data":[0,0,0,0,0,0,0,0,0,0,0,0,0,0,0,0,0,0,0,0,0,0,0,0,0,0,0,0,0,0,0,0,0,0,0,0,0,0,0,0,0,0,0,0,0,0,0,0,0,0,0,0,0,0,0,0,0,0,-3.5171,-3.5172,0,-3.5283,-3.5284,-3.5285,-3.528,-3.5279,-3.5277,-3.5276,-3.539,-3.5394,-3.5398,0,0,0,0,0,0,0,0,0,0,0,0,0,-3.4954,-3.4958,-3.5171,-3.5172,-3.5174,-3.5282,-3.5284,-3.5285,-3.5281,-3.5279,-3.5277,-3.5275,-3.5388,-3.5393,-3.5399,0,0,0,0,0,0,0,0,0,0,0,0,0,-3.5055,-3.496,-3.5171,-3.5185,-3.5187,-3.5282,-3.5284,-3.5286,-3.5281,-3.5279,-3.5276,-3.5274,-3.5386,-3.5393,-3.54,-3.5488,0,0,-3.542,-3.5423,0,0,0,0,0,0,0,0,-3.505,-3.5063,-3.5181,-3.5184,-3.5187,-3.5265,-3.5249,-3.5354,-3.5282,-3.5245,-3.5276,-3.5273,-3.535,-3.536,-3.5386,-3.5494,-3.5498,-3.5421,-3.5425,-3.5428,-3.543,0,0,0,0,0,0,0,-3.5043,-3.5059,-3.5215,-3.5183,-3.5186,-3.5185,-3.5197,-3.5269,-3.531,-3.5248,-3.5248,-3.5261,-3.5351,-3.5379,-3.5388,-3.55,-3.5421,-3.5427,-3.5431,-3.5433,-3.5687,-3.5689,0,0,0,0,0,0,-3.5033,-3.5053,-3.5212,-3.5218,-3.5111,-3.5191,-3.5204,-3.5242,-3.5309,-3.5317,-3.5263,-3.5261,-3.5369,-3.538,-3.5392,-3.55,-3.5428,-3.5434,-3.5438,-3.5684,-3.5687,-3.569,0,0,0,0,0,0,-3.5028,-3.5047,-3.5207,-3.5136,-3.5156,-3.5197,-3.524,-3.5246,-3.5274,-3.532,-3.5327,-3.5285,-3.5367,-3.5383,-3.5464,-3.5504,-3.5437,-3.5443,-3.5681,-3.5685,-3.5689,-3.5717,0,0,0,0,0,0,-3.5022,-3.5045,-3.5079,-3.5136,-3.516,-3.5277,-3.5243,-3.525,-3.5285,-3.5283,-3.5342,-3.5349,-3.5367,-3.5454,-3.5471,-3.5512,-3.5448,-3.5677,-3.5683,-3.5687,-3.5712,-3.5721,-3.5729,0,0,0,0,0,-3.5014,-3.5083,-3.5081,-3.51,-3.5203,-3.528,-3.5293,-3.5312,-3.5289,-3.5323,-3.5353,-3.5348,-3.5497,-3.5463,-3.5482,-3.5525,-3.5675,-3.5681,-3.5687,-3.5709,-3.572,-3.5729,0,0,0,0,0,0,-3.5029,-3.509,-3.5089,-3.5178,-3.5224,-3.5279,-3.5323,-3.5322,-3.5375,-3.5371,-3.5392,-3.5405,-3.5487,-3.5515,-3.5475,-3.5615,-3.5583,-3.5593,-3.5593,-3.5604,-3.5612,-3.5603,-3.5454,0,0,0,0,0,-3.5043,-3.51,-3.515,-3.5224,-3.5247,-3.5281,-3.5315,-3.5326,-3.5373,-3.5393,-3.5428,-3.5475,-3.5533,-3.557,-3.5626,-3.5717,-3.5729,-3.5756,-3.5764,-3.5771,-3.5779,-3.5829,-3.5841,-3.571,-3.571,-3.571,0,0,-3.5071,-3.5112,-3.5147,-3.5228,-3.5264,-3.5323,-3.5297,-3.536,-3.5404,-3.5402,-3.5481,-3.5509,-3.5563,-3.565,-3.569,-3.5675,-3.5818,-3.5779,-3.5783,-3.5788,-3.5837,-3.5849,-3.586,-3.5714,-3.5713,-3.5713,0,0,-3.5153,-3.519,-3.5255,-3.5292,-3.5348,-3.537,-3.5386,-3.5442,-3.546,-3.554,-3.554,-3.5592,-3.5691,-3.5729,-3.5761,-3.5859,-3.5856,-3.5877,-3.5919,-3.5967,-3.5978,-3.5987,-3.6021,-3.6033,-3.5885,-3.5885,-3.5885,0,-3.5182,-3.527,-3.5289,-3.5352,-3.5388,-3.539,-3.5456,-3.5491,-3.5562,-3.5587,-3.557,-3.5694,-3.573,-3.5826,-3.585,-3.5876,-3.5895,-3.5869,-3.5975,-3.5984,-3.5993,-3.6026,-3.6039,-3.5887,-3.5887,-3.5886,-3.5886,0,-3.5302,-3.5363,-3.5409,-3.5477,-3.5518,-3.5583,-3.5612,-3.5652,-3.5659,-3.5683,-3.5764,-3.5808,-3.5873,-3.5896,-3.5904,-3.5993,-3.5983,-3.597,-3.5938,-3.6007,-3.6038,-3.6051,-3.589,-3.5889,-3.5888,-3.5888,0,0,-3.5395,-3.5474,-3.549,-3.5521,-3.5583,-3.5631,-3.5696,-3.5759,-3.5792,-3.5841,-3.5896,-3.598,-3.5969,-3.6005,-3.6018,-3.606,-3.6134,-3.6043,-3.6044,-3.6057,-3.6235,-3.6243,-3.6257,-3.6133,-3.6135,-3.6137,-3.623,0,-3.5483,-3.5597,-3.5617,-3.5717,-3.5773,-3.5777,-3.5833,-3.5877,-3.5902,-3.5954,-3.5981,-3.604,-3.6021,-3.6043,-3.6086,-3.6116,-3.617,-3.611,-3.6183,-3.6186,-3.6169,-3.6273,-3.6282,-3.6367,-3.6242,-3.6244,-3.6246,0,-3.56,-3.5652,-3.5758,-3.5812,-3.5837,-3.5887,-3.5946,-3.5996,-3.6046,-3.6061,-3.6103,-3.611,-3.6177,-3.6144,-3.6237,-3.6196,-3.6228,-3.6247,-3.6251,-3.6258,-3.6219,-3.6282,-3.6395,-3.6407,-3.6265,-3.6264,-3.6262,0,-3.5656,-3.5753,-3.5829,-3.5856,-3.5921,-3.5956,-3.5985,-3.6033,-3.607,-3.6122,-3.6146,-3.6206,-3.6238,-3.6284,-3.6307,-3.6281,-3.6399,-3.6367,-3.6413,-3.6412,-3.6436,-3.6434,-3.6555,-3.6459,-3.6458,-3.6458,-3.6458,0,-3.5751,-3.5816,-3.5855,-3.5901,-3.5974,-3.5996,-3.6067,-3.6096,-3.6138,-3.619,-3.6197,-3.6246,-3.6275,-3.6328,-3.6347,-3.6421,-3.6435,-3.6449,-3.6453,-3.6448,-3.6446,-3.6468,-3.6463,-3.6462,-3.6461,-3.646,-3.646,0,-3.5826,-3.5855,-3.5938,-3.5993,-3.6009,-3.6059,-3.6107,-3.6152,-3.6177,-3.6243,-3.626,-3.6299,-3.6362,-3.639,-3.6468,-3.648,-3.6564,-3.6565,-3.6547,-3.6548,-3.6592,-3.6587,-3.673,-3.675,-3.6641,-3.6642,-3.6643,0,-3.5885,-3.5934,-3.5995,-3.603,-3.606,-3.6117,-3.6155,-3.6179,-3.6218,-3.6279,-3.6317,-3.638,-3.6432,-3.6532,-3.6567,-3.6627,-3.6628,-3.6674,-3.6637,-3.663,-3.6628,-3.6624,-3.6629,-3.668,-3.6682,-3.6682,-3.6683,0,-3.5985,-3.5997,-3.6051,-3.611,-3.6154,-3.6202,-3.6249,-3.6277,-3.6309,-3.6352,-3.6416,-3.6456,-3.6536,-3.6598,-3.666,-3.669,-3.6692,-3.6695,-3.6708,-3.6703,-3.6691,-3.6697,-3.6565,-3.6691,-3.669,-3.669,-3.6689,-3.6689,-3.6053,-3.6097,-3.6147,-3.6206,-3.6244,-3.6288,-3.6333,-3.6363,-3.6417,-3.6484,-3.6495,-3.6563,-3.6613,-3.6696,-3.6728,-3.6782,-3.6771,-3.6791,-3.6796,-3.68,-3.6802,-3.6683,-3.6794,-3.6794,-3.6794,-3.6793,-3.6793,0,-3.6153,-3.6185,-3.624,-3.6305,-3.6352,-3.635,-3.6402,-3.6441,-3.6501,-3.6547,-3.6598,-3.6672,-3.6733,-3.6773,-3.6835,-3.687,-3.6872,-3.6885,-3.6883,-3.6889,-3.6809,-3.6791,-3.6882,-3.6882,-3.6882,-3.6882,-3.6882,-3.6882,-3.6211,-3.6285,-3.6303,-3.6396,-3.6428,-3.6495,-3.6525,-3.6565,-3.6602,-3.6684,-3.6734,-3.676,-3.6804,-3.6869,-3.6925,-3.6935,-3.6957,-3.6971,-3.698,-3.6904,-3.6895,-3.6886,-3.6869,-3.6975,-3.6975,-3.7056,-3.7057,-3.7057]},{"header":{"parameterUnit":"m.s-1","parameterCategory":1,"la1":30.2991,"la2":30.254,"lo1":-89.0895,"lo2":-89.0444,"dy":0.0017,"dx":0.0017,"nx":28,"ny":28,"refTime":"2025-04-30T21:00:00:Z","depth":0,"parameterNumber":3,"parameterNumberName":"V-component_of_WINDS"},"data":[0,0,0,0,0,0,0,0,0,0,0,0,0,0,0,0,0,0,0,0,0,0,0,0,0,0,0,0,0,0,0,0,0,0,0,0,0,0,0,0,0,0,0,0,0,0,0,0,0,0,0,0,0,0,0,0,0,0,5.7468,5.7469,0,5.7527,5.7528,5.7529,5.7468,5.7465,5.7463,5.7461,5.7517,5.752,5.7524,0,0,0,0,0,0,0,0,0,0,0,0,0,5.7296,5.73,5.7468,5.7469,5.7469,5.7527,5.7528,5.7529,5.7468,5.7465,5.7463,5.746,5.7515,5.752,5.7524,0,0,0,0,0,0,0,0,0,0,0,0,0,5.7365,5.7301,5.7468,5.7446,5.7445,5.7527,5.7528,5.7529,5.7469,5.7465,5.7462,5.7458,5.7514,5.7519,5.7525,5.7629,0,0,5.7542,5.7544,0,0,0,0,0,0,0,0,5.7361,5.7371,5.7449,5.7448,5.7447,5.7487,5.7488,5.7562,5.747,5.746,5.7461,5.7457,5.7509,5.7515,5.7534,5.7632,5.7634,5.7542,5.7546,5.7548,5.7549,0,0,0,0,0,0,0,5.7356,5.7368,5.7491,5.745,5.7449,5.7432,5.7438,5.7502,5.7503,5.746,5.7456,5.7464,5.7508,5.7528,5.7534,5.7635,5.7542,5.7547,5.755,5.7552,5.782,5.7824,0,0,0,0,0,0,5.7355,5.7365,5.7489,5.7493,5.7394,5.7438,5.7444,5.7477,5.7502,5.7503,5.7467,5.7461,5.7521,5.7528,5.7536,5.7658,5.7548,5.7553,5.7556,5.7816,5.7821,5.7825,0,0,0,0,0,0,5.7351,5.7366,5.7487,5.7428,5.7442,5.7445,5.7482,5.748,5.7501,5.7508,5.7507,5.7488,5.7518,5.7528,5.7607,5.7659,5.7555,5.7561,5.7812,5.7818,5.7823,5.7905,0,0,0,0,0,0,5.7347,5.7366,5.7407,5.7429,5.7445,5.7558,5.7485,5.7484,5.7511,5.7504,5.7527,5.7528,5.7516,5.7599,5.7612,5.7665,5.7565,5.7807,5.7814,5.7821,5.7897,5.7913,5.7926,0,0,0,0,0,5.7341,5.7427,5.7409,5.7425,5.7497,5.7561,5.757,5.7557,5.7516,5.7556,5.756,5.7527,5.7652,5.7607,5.7622,5.7677,5.7804,5.7812,5.7821,5.7891,5.791,5.7926,0,0,0,0,0,0,5.7409,5.7429,5.741,5.7506,5.7533,5.7551,5.7601,5.7577,5.7615,5.7606,5.7586,5.7592,5.7674,5.7684,5.7633,5.7779,5.7721,5.7733,5.7769,5.7787,5.7801,5.7796,5.7569,0,0,0,0,0,5.7436,5.7488,5.7502,5.7586,5.76,5.7599,5.7626,5.7614,5.764,5.765,5.766,5.7685,5.7729,5.7759,5.7801,5.7899,5.7902,5.7945,5.7959,5.797,5.798,5.8031,5.8049,5.7853,5.7853,5.7853,0,0,5.749,5.7508,5.7542,5.76,5.7619,5.7671,5.7608,5.7667,5.7705,5.7658,5.7732,5.7741,5.7767,5.7855,5.7895,5.7866,5.8035,5.7981,5.7991,5.7994,5.8041,5.806,5.8076,5.7859,5.7858,5.7857,0,0,5.7616,5.7636,5.7707,5.7727,5.7757,5.7756,5.7773,5.7795,5.7799,5.7874,5.7839,5.7884,5.7962,5.7981,5.8002,5.8135,5.8105,5.8149,5.8222,5.8272,5.8287,5.8301,5.8346,5.8363,5.8159,5.8159,5.816,0,5.7679,5.7759,5.7746,5.7807,5.7832,5.7794,5.7864,5.7884,5.7926,5.7943,5.7911,5.8007,5.8023,5.8114,5.8146,5.8165,5.8182,5.8145,5.8286,5.83,5.8312,5.8355,5.8372,5.8164,5.8164,5.8163,5.8163,0,5.7834,5.789,5.7943,5.7986,5.8017,5.8083,5.8077,5.8111,5.8096,5.8097,5.8172,5.8189,5.8233,5.8254,5.824,5.8343,5.8324,5.829,5.823,5.8336,5.8376,5.8392,5.8172,5.817,5.8168,5.8167,0,0,5.8004,5.8038,5.8058,5.8076,5.8106,5.8148,5.8211,5.8255,5.8283,5.8313,5.8363,5.843,5.8398,5.8421,5.8409,5.8453,5.8554,5.8412,5.8412,5.8436,5.8666,5.8691,5.871,5.8536,5.8539,5.8541,5.8663,0,5.8129,5.8239,5.8229,5.8333,5.8382,5.8347,5.8401,5.8425,5.8428,5.8469,5.8471,5.8518,5.8474,5.8487,5.853,5.8533,5.86,5.8524,5.858,5.8582,5.8572,5.8731,5.8757,5.8872,5.8679,5.8682,5.8684,0,5.8289,5.8326,5.8435,5.8457,5.8477,5.8527,5.8565,5.8606,5.8631,5.863,5.8656,5.8636,5.8696,5.8638,5.872,5.8669,5.8691,5.8697,5.8701,5.8703,5.8638,5.8736,5.8908,5.8924,5.8709,5.8707,5.8705,0,5.8399,5.8476,5.855,5.8567,5.8595,5.863,5.8643,5.8665,5.8692,5.8725,5.8742,5.8782,5.8803,5.8834,5.8824,5.8783,5.8907,5.8849,5.8906,5.8906,5.8932,5.893,5.9108,5.8951,5.895,5.895,5.895,0,5.8538,5.8606,5.86,5.8646,5.872,5.8706,5.8779,5.8788,5.8807,5.8852,5.8825,5.8867,5.8853,5.8894,5.8887,5.8954,5.8965,5.8964,5.8961,5.8965,5.8965,5.8978,5.8969,5.8955,5.8954,5.8953,5.8952,0,5.8672,5.8671,5.875,5.877,5.8777,5.883,5.8846,5.8888,5.889,5.8947,5.896,5.8961,5.9008,5.9002,5.9054,5.9049,5.9133,5.9121,5.9125,5.9121,5.9178,5.9172,5.9368,5.9392,5.9222,5.9223,5.9225,0,5.876,5.8811,5.8837,5.8866,5.8882,5.8929,5.8956,5.8945,5.8974,5.9006,5.9044,5.9089,5.9124,5.9201,5.9205,5.9244,5.9232,5.9298,5.9237,5.924,5.923,5.9226,5.923,5.9309,5.9311,5.9313,5.9314,0,5.8915,5.8912,5.8954,5.8995,5.9029,5.906,5.9089,5.9114,5.9105,5.9139,5.9187,5.9215,5.9269,5.9313,5.935,5.9361,5.9335,5.9334,5.9348,5.9352,5.9351,5.935,5.9155,5.9328,5.9327,5.9326,5.9325,5.9325,5.9027,5.907,5.9095,5.9142,5.9162,5.919,5.923,5.9236,5.9277,5.9321,5.9311,5.9365,5.9387,5.9435,5.945,5.9491,5.9466,5.9489,5.9494,5.9499,5.9505,5.9347,5.9498,5.9498,5.9497,5.9497,5.9496,0,5.9179,5.9193,5.9237,5.9278,5.9314,5.9289,5.9319,5.935,5.9399,5.9423,5.9458,5.9513,5.9555,5.9564,5.9604,5.9635,5.9624,5.9645,5.9642,5.9644,5.9525,5.9507,5.9653,5.9653,5.9653,5.9653,5.9653,5.9653,5.9262,5.9333,5.9333,5.9414,5.9427,5.9481,5.95,5.9524,5.9543,5.9606,5.9641,5.9647,5.9664,5.9705,5.9742,5.9743,5.9758,5.9784,5.978,5.9668,5.9653,5.9638,5.9621,5.9788,5.9788,5.9895,5.9896,5.9897]}]]